Terminal Aerodrome Forecast
Issued by NWS Houston/Galveston TX

Home | Current Version | Previous Version | Text Only | Print | Product List | Glossary On
Versions: 1 2 3 4 5 6 7 8 9 10 11 12 13 14 15 16 17 18 19 20 21 22 23 24 25 26 27 28 29 30 31 32 33 34 35 36 37 38 39 40 41 42 43 44 45 46 47 48
000
FTUS44 KHGX 012335
TAFHOU
TAF
KHOU 012335Z 0200/0224 16012G17KT P6SM SCT035
     FM020900 18003KT P6SM VCSH SCT006 BKN015
     FM021400 18008KT P6SM SCT015 BKN025
     FM021600 17011KT P6SM SCT025 BKN050
     FM022000 18011G17KT P6SM VCSH BKN050=

USA.gov is the U.S. government's official web portal to all federal, state and local government web resources and services.